When you browse on this site, cookies collect data to enhance your experience and personalize the content and advertising you see.
Visit our Privacy Policy to learn more. By continuing to use the site, you agree to this use of cookies and data.
  • In Latvia
  • List of Countries
  • For 7 days
  • Water Temperature
  • Satellite Maps
  • Weather Map
  • Weather Widgets
  • user-avatar
    Login

    Hourly Weather Idzhewan

    Today, 20 April, Saturday

    Time Temperature Precipitation Wind Pressure Humidity
    00:00 +4°C° 0.8 mm 2 mps 689 mmHg 97%
    01:00 +4°C° 1 mm 2 mps 689 mmHg 97%
    02:00 +4°C° 1 mm 2 mps 689 mmHg 97%
    03:00 +3°C° 0 mm 2 mps 688 mmHg 98%
    04:00 +3°C° 0.9 mm 2 mps 689 mmHg 98%
    05:00 +3°C° 0.9 mm 2 mps 689 mmHg 97%
    06:00 +4°C° 0.9 mm 1 mps 689 mmHg 97%
    07:00 +4°C° 0.7 mm 1 mps 689 mmHg 96%
    08:00 +4°C° 0.7 mm 2 mps 689 mmHg 95%
    09:00 +4°C° 0 mm 2 mps 689 mmHg 94%
    10:00 +5°C° 0.4 mm 2 mps 690 mmHg 93%
    11:00 +5°C° 0.4 mm 2 mps 690 mmHg 92%
    12:00 +6°C° 0.4 mm 2 mps 690 mmHg 91%
    13:00 +6°C° 0.2 mm 2 mps 690 mmHg 89%
    14:00 +7°C° 0.2 mm 2 mps 690 mmHg 88%
    15:00 +7°C° 0.2 mm 2 mps 690 mmHg 86%
    16:00 +7°C° 0 mm 2 mps 690 mmHg 87%
    17:00 +8°C° 0 mm 1 mps 690 mmHg 87%
    18:00 +7°C° 0 mm 1 mps 690 mmHg 88%
    19:00 +6°C° 0 mm 1 mps 690 mmHg 89%
    20:00 +5°C° 0 mm 1 mps 691 mmHg 90%
    21:00 +4°C° 0 mm 1 mps 691 mmHg 91%
    22:00 +3°C° 0 mm 0 mps 691 mmHg 91%
    23:00 +2°C° 0 mm 0 mps 691 mmHg 92%

    Tomorrow, 21 April, Sunday

    Time Temperature Precipitation Wind Pressure Humidity
    00:00 +2°C° 0 mm 0 mps 691 mmHg 92%
    01:00 +2°C° 0 mm 0 mps 691 mmHg 94%
    02:00 +4°C° 0 mm 1 mps 692 mmHg 95%
    03:00 +4°C° 0 mm 1 mps 692 mmHg 97%
    04:00 +4°C° 0.1 mm 1 mps 692 mmHg 96%
    05:00 +4°C° 0.1 mm 1 mps 692 mmHg 96%
    06:00 +4°C° 0.1 mm 1 mps 692 mmHg 95%
    07:00 +3°C° 0.2 mm 2 mps 692 mmHg 93%
    08:00 +4°C° 0.2 mm 2 mps 692 mmHg 91%
    09:00 +5°C° 0.2 mm 2 mps 691 mmHg 90%
    10:00 +5°C° 0.1 mm 2 mps 691 mmHg 88%
    11:00 +5°C° 0.1 mm 3 mps 691 mmHg 87%
    12:00 +5°C° 0.1 mm 3 mps 691 mmHg 86%
    13:00 +5°C° 0.1 mm 3 mps 690 mmHg 86%
    14:00 +7°C° 0.1 mm 3 mps 690 mmHg 85%
    15:00 +7°C° 0.1 mm 3 mps 690 mmHg 85%
    16:00 +5°C° 0.1 mm 3 mps 690 mmHg 86%
    17:00 +6°C° 0.1 mm 2 mps 690 mmHg 87%
    18:00 +6°C° 0.1 mm 2 mps 690 mmHg 88%
    19:00 +5°C° 0.2 mm 2 mps 691 mmHg 90%
    20:00 +5°C° 0.2 mm 1 mps 691 mmHg 92%
    21:00 +5°C° 0.2 mm 1 mps 692 mmHg 93%
    22:00 +5°C° 0.1 mm 1 mps 692 mmHg 94%
    23:00 +4°C° 0.1 mm 1 mps 692 mmHg 95%

    Day after tomorrow, 22 April, Monday

    Time Temperature Precipitation Wind Pressure Humidity
    00:00 +4°C° 0.1 mm 1 mps 692 mmHg 96%
    01:00 +4°C° 0.2 mm 1 mps 692 mmHg 97%
    02:00 +3°C° 0.2 mm 2 mps 692 mmHg 97%
    03:00 +3°C° 0.2 mm 2 mps 692 mmHg 97%
    04:00 +3°C° 0.1 mm 2 mps 692 mmHg 97%
    05:00 +3°C° 0.1 mm 2 mps 692 mmHg 97%
    06:00 +3°C° 0.1 mm 2 mps 691 mmHg 97%
    07:00 +3°C° 0.2 mm 2 mps 691 mmHg 95%
    08:00 +4°C° 0.2 mm 2 mps 691 mmHg 94%
    09:00 +4°C° 0.2 mm 2 mps 690 mmHg 93%
    10:00 +5°C° 0.1 mm 2 mps 690 mmHg 90%
    11:00 +5°C° 0.1 mm 2 mps 690 mmHg 88%
    12:00 +5°C° 0.1 mm 3 mps 690 mmHg 86%
    13:00 +5°C° 0.3 mm 3 mps 690 mmHg 85%
    14:00 +5°C° 0.3 mm 3 mps 690 mmHg 84%
    15:00 +7°C° 0.3 mm 3 mps 690 mmHg 83%
    16:00 +6°C° 0.5 mm 2 mps 690 mmHg 85%
    17:00 +6°C° 0.5 mm 2 mps 690 mmHg 88%
    18:00 +5°C° 0.5 mm 2 mps 691 mmHg 90%
    19:00 +6°C° 0.8 mm 1 mps 691 mmHg 91%
    20:00 +6°C° 0.8 mm 1 mps 692 mmHg 93%
    21:00 +5°C° 0.8 mm 1 mps 693 mmHg 94%
    22:00 +5°C° 0.8 mm 1 mps 693 mmHg 95%
    23:00 +5°C° 0.8 mm 1 mps 693 mmHg 96%

    23 April, Tuesday

    Time Temperature Precipitation Wind Pressure Humidity
    00:00 +5°C° 0.8 mm 1 mps 694 mmHg 97%
    01:00 +5°C° 0.5 mm 1 mps 694 mmHg 97%
    02:00 +4°C° 0.5 mm 1 mps 694 mmHg 97%
    03:00 +4°C° 0.5 mm 1 mps 694 mmHg 97%
    04:00 +4°C° 0.2 mm 1 mps 694 mmHg 96%
    05:00 +4°C° 0.2 mm 1 mps 694 mmHg 95%
    06:00 +4°C° 0.2 mm 1 mps 694 mmHg 94%
    07:00 +5°C° 0.1 mm 1 mps 695 mmHg 93%
    08:00 +6°C° 0.1 mm 1 mps 695 mmHg 91%
    09:00 +7°C° 0.1 mm 1 mps 695 mmHg 89%
    10:00 +8°C° 0.2 mm 1 mps 695 mmHg 88%
    11:00 +9°C° 0.2 mm 1 mps 695 mmHg 86%
    12:00 +9°C° 0.2 mm 2 mps 695 mmHg 85%
    13:00 +9°C° 0.2 mm 2 mps 695 mmHg 83%
    14:00 +9°C° 0.2 mm 2 mps 695 mmHg 82%
    15:00 +10°C° 0.2 mm 2 mps 695 mmHg 81%
    16:00 +10°C° 0.1 mm 1 mps 695 mmHg 83%
    17:00 +10°C° 0.1 mm 1 mps 695 mmHg 84%
    18:00 +9°C° 0.1 mm 1 mps 695 mmHg 85%
    19:00 +9°C° 0.1 mm 1 mps 696 mmHg 85%
    20:00 +7°C° 0.1 mm 0 mps 697 mmHg 85%
    21:00 +6°C° 0.1 mm 0 mps 697 mmHg 85%
    22:00 +6°C° 0.2 mm 0 mps 697 mmHg 87%
    23:00 +7°C° 0.2 mm 1 mps 697 mmHg 89%

    24 April, Wednesday

    Time Temperature Precipitation Wind Pressure Humidity
    00:00 +7°C° 0.2 mm 1 mps 698 mmHg 91%
    01:00 +6°C° 0.2 mm 1 mps 698 mmHg 93%
    02:00 +6°C° 0.2 mm 1 mps 698 mmHg 95%
    03:00 +6°C° 0.2 mm 1 mps 698 mmHg 96%
    04:00 +6°C° 0.1 mm 1 mps 698 mmHg 96%
    05:00 +6°C° 0.1 mm 1 mps 698 mmHg 96%
    06:00 +6°C° 0.1 mm 1 mps 698 mmHg 96%
    07:00 +6°C° 0.2 mm 1 mps 698 mmHg 94%
    08:00 +6°C° 0.2 mm 2 mps 698 mmHg 92%
    09:00 +7°C° 0.2 mm 2 mps 698 mmHg 91%
    10:00 +7°C° 0.4 mm 2 mps 698 mmHg 90%
    11:00 +7°C° 0.4 mm 2 mps 698 mmHg 90%
    12:00 +7°C° 0.4 mm 2 mps 697 mmHg 90%
    13:00 +8°C° 0.2 mm 2 mps 697 mmHg 87%
    14:00 +8°C° 0.2 mm 2 mps 697 mmHg 84%
    15:00 +9°C° 0.2 mm 2 mps 697 mmHg 81%
    16:00 +8°C° 0.2 mm 2 mps 697 mmHg 83%
    17:00 +8°C° 0.2 mm 2 mps 697 mmHg 84%
    18:00 +7°C° 0.2 mm 2 mps 697 mmHg 85%
    19:00 +6°C° 0.1 mm 2 mps 698 mmHg 87%
    20:00 +7°C° 0.1 mm 1 mps 698 mmHg 89%
    21:00 +6°C° 0.1 mm 1 mps 699 mmHg 92%
    22:00 +6°C° 0.1 mm 1 mps 699 mmHg 93%
    23:00 +4°C° 0.1 mm 0 mps 699 mmHg 94%

    25 April, Thursday

    Time Temperature Precipitation Wind Pressure Humidity
    00:00 +4°C° 0.1 mm 0 mps 699 mmHg 95%
    01:00 +4°C° 0 mm 0 mps 699 mmHg 95%
    02:00 +3°C° 0 mm 0 mps 699 mmHg 95%
    03:00 +3°C° 0 mm 0 mps 699 mmHg 95%
    04:00 +3°C° 0 mm 0 mps 700 mmHg 94%
    05:00 +3°C° 0 mm 0 mps 700 mmHg 92%
    06:00 +3°C° 0 mm 0 mps 700 mmHg 91%
    07:00 +6°C° 0 mm 1 mps 700 mmHg 87%
    08:00 +7°C° 0 mm 1 mps 700 mmHg 83%
    09:00 +8°C° 0 mm 1 mps 699 mmHg 79%
    10:00 +8°C° 0.1 mm 2 mps 699 mmHg 77%
    11:00 +8°C° 0.1 mm 2 mps 699 mmHg 74%
    12:00 +9°C° 0.1 mm 2 mps 698 mmHg 72%
    13:00 +9°C° 0.1 mm 2 mps 698 mmHg 70%
    14:00 +10°C° 0.1 mm 2 mps 698 mmHg 68%
    15:00 +10°C° 0.1 mm 2 mps 697 mmHg 66%
    16:00 +11°C° 0 mm 1 mps 697 mmHg 68%
    17:00 +10°C° 0 mm 1 mps 697 mmHg 70%
    18:00 +10°C° 0 mm 1 mps 698 mmHg 72%
    19:00 +8°C° 0 mm 1 mps 698 mmHg 74%
    20:00 +7°C° 0 mm 1 mps 698 mmHg 75%
    21:00 +4°C° 0 mm 2 mps 699 mmHg 77%
    22:00 +4°C° 0 mm 2 mps 699 mmHg 77%
    23:00 +4°C° 0 mm 2 mps 699 mmHg 77%
    Show more